Time,TemperatureF,DewpointF,PressureIn,WindDirection,WindDirectionDegrees,WindSpeedMPH,WindSpeedGustMPH,Humidity,HourlyPrecipIn,Conditions,Clouds,dailyrainin,SolarRadiationWatts/m^2,SoftwareType,DateUTC
2013-08-10 00:01:00,79.2,75.9,30.05,East,86,0.0,0.0,90,0.00,,,0.00,0.0,meteohub,2013-08-10 04:01:00,
2013-08-10 00:02:00,79.2,75.9,30.06,East,86,0.0,0.0,90,0.00,,,0.00,0.0,meteohub,2013-08-10 04:02:00,
2013-08-10 00:07:00,79.2,76.3,30.05,East,86,0.0,0.0,91,0.00,,,0.00,0.0,meteohub,2013-08-10 04:07:00,
2013-08-10 00:12:00,79.0,76.1,30.05,East,86,0.0,0.0,91,0.00,,,0.00,0.0,meteohub,2013-08-10 04:12:00,
2013-08-10 00:17:00,78.6,75.7,30.05,East,86,0.0,0.0,91,0.00,,,0.00,0.0,meteohub,2013-08-10 04:17:00,
2013-08-10 00:22:00,78.6,75.7,30.05,East,86,0.0,0.0,91,0.00,,,0.00,0.0,meteohub,2013-08-10 04:22:00,
2013-08-10 00:27:00,78.3,75.7,30.05,East,86,0.0,0.0,92,0.00,,,0.00,0.0,meteohub,2013-08-10 04:27:00,
2013-08-10 00:32:00,78.1,75.6,30.06,East,86,0.0,0.0,92,0.00,,,0.00,0.0,meteohub,2013-08-10 04:32:00,
2013-08-10 00:37:00,77.9,75.4,30.06,East,86,0.0,0.0,92,0.00,,,0.00,0.0,meteohub,2013-08-10 04:37:00,
2013-08-10 00:42:00,77.7,75.2,30.06,East,86,0.0,0.0,92,0.00,,,0.00,0.0,meteohub,2013-08-10 04:42:00,
2013-08-10 00:47:00,77.5,75.4,30.06,East,86,0.0,0.0,93,0.00,,,0.00,0.0,meteohub,2013-08-10 04:47:00,
2013-08-10 00:52:00,77.4,75.2,30.06,East,86,0.0,0.0,93,0.00,,,0.00,0.0,meteohub,2013-08-10 04:52:00,
2013-08-10 00:57:00,77.2,75.0,30.06,East,86,0.0,0.0,93,0.00,,,0.00,0.0,meteohub,2013-08-10 04:57:00,
2013-08-10 01:02:00,77.0,74.8,30.06,East,86,0.0,0.0,93,0.00,,,0.00,0.0,meteohub,2013-08-10 05:02:00,
2013-08-10 01:07:00,76.8,75.0,30.06,East,86,0.0,0.0,94,0.00,,,0.00,0.0,meteohub,2013-08-10 05:07:00,
2013-08-10 01:12:00,76.8,75.0,30.06,East,86,0.0,0.0,94,0.00,,,0.00,0.0,meteohub,2013-08-10 05:12:00,
2013-08-10 01:17:00,76.6,74.8,30.06,East,86,0.0,0.0,94,0.00,,,0.00,0.0,meteohub,2013-08-10 05:17:00,
2013-08-10 01:22:00,76.6,75.0,30.05,East,86,0.0,0.0,95,0.00,,,0.00,0.0,meteohub,2013-08-10 05:22:00,
2013-08-10 01:27:00,76.6,75.0,30.06,East,86,0.0,0.0,95,0.00,,,0.00,0.0,meteohub,2013-08-10 05:27:00,
2013-08-10 01:32:00,76.5,74.8,30.05,East,86,0.0,0.0,95,0.00,,,0.00,0.0,meteohub,2013-08-10 05:32:00,
2013-08-10 01:37:00,76.5,74.8,30.05,East,86,0.0,0.0,95,0.00,,,0.00,0.0,meteohub,2013-08-10 05:37:00,
2013-08-10 01:42:00,76.3,74.7,30.05,East,86,0.0,0.0,95,0.00,,,0.00,0.0,meteohub,2013-08-10 05:42:00,
2013-08-10 01:47:00,76.1,74.5,30.05,East,86,0.0,0.0,95,0.00,,,0.00,0.0,meteohub,2013-08-10 05:47:00,
2013-08-10 01:52:00,75.9,74.3,30.05,East,86,0.0,0.0,95,0.00,,,0.00,0.0,meteohub,2013-08-10 05:52:00,
2013-08-10 01:57:00,75.9,74.3,30.05,East,86,0.0,0.0,95,0.00,,,0.00,0.0,meteohub,2013-08-10 05:57:00,
2013-08-10 02:02:00,75.7,74.1,30.05,East,86,0.0,0.0,95,0.00,,,0.00,0.0,meteohub,2013-08-10 06:02:00,
2013-08-10 02:07:00,75.7,74.5,30.06,East,86,0.0,0.0,96,0.00,,,0.00,0.0,meteohub,2013-08-10 06:07:00,
2013-08-10 02:12:00,75.7,74.5,30.06,East,86,0.0,0.0,96,0.00,,,0.00,0.0,meteohub,2013-08-10 06:12:00,
2013-08-10 02:17:00,75.7,74.5,30.06,East,86,0.0,0.0,96,0.00,,,0.00,0.0,meteohub,2013-08-10 06:17:00,
2013-08-10 02:23:00,75.6,74.3,30.06,East,86,0.0,0.0,96,0.00,,,0.00,0.0,meteohub,2013-08-10 06:23:00,
2013-08-10 02:28:00,75.6,74.3,30.06,East,86,0.0,0.0,96,0.00,,,0.00,0.0,meteohub,2013-08-10 06:28:00,
2013-08-10 02:33:00,75.4,74.1,30.06,East,86,0.0,0.0,96,0.00,,,0.00,0.0,meteohub,2013-08-10 06:33:00,
2013-08-10 02:38:00,75.4,74.1,30.06,East,86,0.0,0.0,96,0.00,,,0.00,0.0,meteohub,2013-08-10 06:38:00,
2013-08-10 02:43:00,75.2,73.9,30.06,East,86,0.0,0.0,96,0.00,,,0.00,0.0,meteohub,2013-08-10 06:43:00,
2013-08-10 02:48:00,75.2,73.9,30.06,East,86,0.0,0.0,96,0.00,,,0.00,0.0,meteohub,2013-08-10 06:48:00,
2013-08-10 02:53:00,75.4,74.1,30.06,East,86,0.0,0.0,96,0.00,,,0.00,0.0,meteohub,2013-08-10 06:53:00,
2013-08-10 02:58:00,75.4,74.1,30.05,East,86,0.0,0.0,96,0.00,,,0.00,0.0,meteohub,2013-08-10 06:58:00,
2013-08-10 03:03:00,75.2,73.9,30.05,East,86,0.0,0.0,96,0.00,,,0.00,0.0,meteohub,2013-08-10 07:03:00,
2013-08-10 03:08:00,75.2,73.9,30.05,East,86,0.0,0.0,96,0.00,,,0.00,0.0,meteohub,2013-08-10 07:08:00,
2013-08-10 03:13:00,75.6,74.7,30.05,East,86,0.0,0.0,97,0.00,,,0.00,0.0,meteohub,2013-08-10 07:13:00,
2013-08-10 03:18:00,75.6,74.7,30.05,East,86,0.0,0.0,97,0.00,,,0.00,0.0,meteohub,2013-08-10 07:18:00,
2013-08-10 03:23:00,75.6,74.3,30.05,East,86,0.0,0.0,96,0.00,,,0.00,0.0,meteohub,2013-08-10 07:23:00,
2013-08-10 03:28:00,75.4,74.1,30.05,East,86,0.0,0.0,96,0.00,,,0.00,0.0,meteohub,2013-08-10 07:28:00,
2013-08-10 03:33:00,75.4,74.5,30.05,East,86,0.0,0.0,97,0.00,,,0.00,0.0,meteohub,2013-08-10 07:33:00,
2013-08-10 03:38:00,75.2,74.3,30.05,East,86,0.0,0.0,97,0.00,,,0.00,0.0,meteohub,2013-08-10 07:38:00,
2013-08-10 03:43:00,75.0,74.1,30.05,East,86,0.0,0.0,97,0.00,,,0.00,0.0,meteohub,2013-08-10 07:43:00,
2013-08-10 03:48:00,75.0,74.1,30.05,East,86,0.0,0.0,97,0.00,,,0.00,0.0,meteohub,2013-08-10 07:48:00,
2013-08-10 03:53:00,75.0,74.1,30.05,East,86,0.0,0.0,97,0.00,,,0.00,0.0,meteohub,2013-08-10 07:53:00,
2013-08-10 03:58:00,75.0,74.1,30.05,East,86,0.0,0.0,97,0.00,,,0.00,0.0,meteohub,2013-08-10 07:58:00,
2013-08-10 04:03:00,74.8,73.9,30.05,East,86,0.0,0.0,97,0.00,,,0.00,0.0,meteohub,2013-08-10 08:03:00,
2013-08-10 04:08:00,74.8,73.9,30.05,East,86,0.0,0.0,97,0.00,,,0.00,0.0,meteohub,2013-08-10 08:08:00,
2013-08-10 04:13:00,74.8,73.9,30.05,East,86,0.0,0.0,97,0.00,,,0.00,0.0,meteohub,2013-08-10 08:13:00,
2013-08-10 04:18:00,74.8,73.9,30.05,East,86,0.0,0.0,97,0.00,,,0.00,0.0,meteohub,2013-08-10 08:18:00,
2013-08-10 04:23:00,74.7,73.8,30.05,East,86,0.0,0.0,97,0.00,,,0.00,0.0,meteohub,2013-08-10 08:23:00,
2013-08-10 04:28:00,74.7,73.8,30.05,East,86,0.0,0.0,97,0.00,,,0.00,0.0,meteohub,2013-08-10 08:28:00,
2013-08-10 04:33:00,74.7,73.8,30.05,East,86,0.0,0.0,97,0.00,,,0.00,0.0,meteohub,2013-08-10 08:33:00,
2013-08-10 04:38:00,74.5,73.6,30.05,East,86,0.0,0.0,97,0.00,,,0.00,0.0,meteohub,2013-08-10 08:38:00,
2013-08-10 04:43:00,74.5,73.6,30.05,East,86,0.0,0.0,97,0.00,,,0.00,0.0,meteohub,2013-08-10 08:43:00,
2013-08-10 04:48:00,74.7,73.8,30.05,East,86,0.0,0.0,97,0.00,,,0.00,0.0,meteohub,2013-08-10 08:48:00,
2013-08-10 04:53:00,74.7,73.8,30.05,East,86,0.0,0.0,97,0.00,,,0.00,0.0,meteohub,2013-08-10 08:53:00,
2013-08-10 04:58:00,74.5,73.6,30.05,East,86,0.0,0.0,97,0.00,,,0.00,0.0,meteohub,2013-08-10 08:58:00,
2013-08-10 05:03:00,74.3,73.4,30.05,East,86,0.0,0.0,97,0.00,,,0.00,0.0,meteohub,2013-08-10 09:03:00,
2013-08-10 05:08:00,74.1,73.2,30.05,East,86,0.0,0.0,97,0.00,,,0.00,0.0,meteohub,2013-08-10 09:08:00,
2013-08-10 05:13:00,74.1,73.2,30.05,East,86,0.0,0.0,97,0.00,,,0.00,0.0,meteohub,2013-08-10 09:13:00,
2013-08-10 05:18:00,74.1,73.2,30.05,East,86,0.0,0.0,97,0.00,,,0.00,0.0,meteohub,2013-08-10 09:18:00,
2013-08-10 05:23:00,73.9,73.0,30.05,East,86,0.0,0.0,97,0.00,,,0.00,0.0,meteohub,2013-08-10 09:23:00,
2013-08-10 05:28:00,73.9,73.0,30.05,East,86,0.0,0.0,97,0.00,,,0.00,0.0,meteohub,2013-08-10 09:28:00,
2013-08-10 05:33:00,73.8,72.9,30.05,East,86,0.0,0.0,97,0.00,,,0.00,0.0,meteohub,2013-08-10 09:33:00,
2013-08-10 05:38:00,73.8,72.9,30.05,East,86,0.0,0.0,97,0.00,,,0.00,0.0,meteohub,2013-08-10 09:38:00,
2013-08-10 05:43:00,73.8,72.9,30.05,East,86,0.0,0.0,97,0.00,,,0.00,0.0,meteohub,2013-08-10 09:43:00,
2013-08-10 05:48:00,73.8,72.9,30.05,East,86,0.0,0.0,97,0.00,,,0.00,0.0,meteohub,2013-08-10 09:48:00,
2013-08-10 05:53:00,73.6,72.7,30.05,East,86,0.0,0.0,97,0.00,,,0.00,0.0,meteohub,2013-08-10 09:53:00,
2013-08-10 05:58:00,73.6,72.7,30.05,East,86,0.0,0.0,97,0.00,,,0.00,0.0,meteohub,2013-08-10 09:58:00,
2013-08-10 06:03:00,73.6,72.7,30.05,East,86,0.0,0.0,97,0.00,,,0.00,0.0,meteohub,2013-08-10 10:03:00,
2013-08-10 06:08:00,73.4,72.5,30.05,East,86,0.0,0.0,97,0.00,,,0.00,0.0,meteohub,2013-08-10 10:08:00,
2013-08-10 06:13:00,73.2,72.3,30.05,East,86,0.0,0.0,97,0.00,,,0.00,0.0,meteohub,2013-08-10 10:13:00,
2013-08-10 06:18:00,73.2,72.3,30.05,East,86,0.0,0.0,97,0.00,,,0.00,0.0,meteohub,2013-08-10 10:18:00,
2013-08-10 06:23:00,73.2,72.3,30.06,East,86,0.0,0.0,97,0.00,,,0.00,0.0,meteohub,2013-08-10 10:23:00,
2013-08-10 06:28:00,73.2,72.3,30.06,East,86,0.0,0.0,97,0.00,,,0.00,0.0,meteohub,2013-08-10 10:28:00,
2013-08-10 06:33:00,73.2,72.3,30.06,East,86,0.0,0.0,97,0.00,,,0.00,0.0,meteohub,2013-08-10 10:33:00,
2013-08-10 06:38:00,73.2,72.3,30.05,East,86,0.0,0.0,97,0.00,,,0.00,0.0,meteohub,2013-08-10 10:38:00,
2013-08-10 06:43:00,73.4,72.9,30.06,East,86,0.0,0.0,98,0.00,,,0.00,0.0,meteohub,2013-08-10 10:43:00,
2013-08-10 06:49:00,73.6,73.0,30.06,East,86,0.0,0.0,98,0.00,,,0.00,0.0,meteohub,2013-08-10 10:49:00,
2013-08-10 06:54:00,73.6,73.0,30.06,East,86,0.0,0.0,98,0.00,,,0.00,5.0,meteohub,2013-08-10 10:54:00,
2013-08-10 06:59:00,73.6,73.0,30.06,East,86,0.0,0.0,98,0.00,,,0.00,9.0,meteohub,2013-08-10 10:59:00,
2013-08-10 07:04:00,73.6,73.0,30.06,East,86,0.0,0.0,98,0.00,,,0.00,11.0,meteohub,2013-08-10 11:04:00,
2013-08-10 07:09:00,73.4,72.9,30.06,East,86,0.0,0.0,98,0.00,,,0.00,16.0,meteohub,2013-08-10 11:09:00,
2013-08-10 07:14:00,73.4,72.5,30.07,East,86,0.0,0.0,97,0.00,,,0.00,19.0,meteohub,2013-08-10 11:14:00,
2013-08-10 07:19:00,73.6,73.0,30.07,East,86,0.0,0.0,98,0.00,,,0.00,47.0,meteohub,2013-08-10 11:19:00,
2013-08-10 07:24:00,73.9,73.4,30.07,East,86,0.0,0.0,98,0.00,,,0.00,60.0,meteohub,2013-08-10 11:24:00,
2013-08-10 07:29:00,74.1,73.6,30.07,East,86,0.0,0.0,98,0.00,,,0.00,76.0,meteohub,2013-08-10 11:29:00,
2013-08-10 07:34:00,74.3,73.8,30.08,East,86,0.0,0.0,98,0.00,,,0.00,84.0,meteohub,2013-08-10 11:34:00,
2013-08-10 07:39:00,74.5,73.9,30.07,East,86,0.0,0.0,98,0.00,,,0.00,109.0,meteohub,2013-08-10 11:39:00,
2013-08-10 07:44:00,74.8,74.3,30.08,East,86,0.0,0.0,98,0.00,,,0.00,123.0,meteohub,2013-08-10 11:44:00,
2013-08-10 07:49:00,75.6,75.0,30.07,East,86,0.0,0.0,98,0.00,,,0.00,137.0,meteohub,2013-08-10 11:49:00,
2013-08-10 07:54:00,75.9,75.4,30.07,East,86,0.0,0.0,98,0.00,,,0.00,151.0,meteohub,2013-08-10 11:54:00,
2013-08-10 07:59:00,76.5,75.9,30.08,East,86,0.0,0.0,98,0.00,,,0.00,165.0,meteohub,2013-08-10 11:59:00,
2013-08-10 08:04:00,77.2,76.6,30.08,East,86,0.0,0.0,98,0.00,,,0.00,185.0,meteohub,2013-08-10 12:04:00,
2013-08-10 08:09:00,77.7,76.8,30.08,East,86,0.0,0.0,97,0.00,,,0.00,204.0,meteohub,2013-08-10 12:09:00,
2013-08-10 08:14:00,78.4,77.5,30.08,East,86,0.0,0.0,97,0.00,,,0.00,223.0,meteohub,2013-08-10 12:14:00,
2013-08-10 08:19:00,79.3,78.4,30.08,East,86,0.0,0.0,97,0.00,,,0.00,244.0,meteohub,2013-08-10 12:19:00,
2013-08-10 08:24:00,80.2,79.0,30.09,East,86,0.0,0.0,96,0.00,,,0.00,265.0,meteohub,2013-08-10 12:24:00,
2013-08-10 08:29:00,81.0,79.0,30.09,East,86,0.0,0.0,94,0.00,,,0.00,285.0,meteohub,2013-08-10 12:29:00,
2013-08-10 08:34:00,81.9,79.3,30.09,East,86,0.0,0.0,92,0.00,,,0.00,302.0,meteohub,2013-08-10 12:34:00,
2013-08-10 08:39:00,82.6,79.3,30.09,SW,227,1.0,2.0,90,0.00,,,0.00,316.0,meteohub,2013-08-10 12:39:00,
2013-08-10 08:44:00,82.8,78.4,30.09,SE,146,0.0,3.0,87,0.00,,,0.00,343.0,meteohub,2013-08-10 12:44:00,
2013-08-10 08:49:00,82.9,77.9,30.09,SSW,202,0.0,5.0,85,0.00,,,0.00,380.0,meteohub,2013-08-10 12:49:00,
2013-08-10 08:54:00,82.9,77.9,30.09,SE,136,1.0,5.0,85,0.00,,,0.00,397.0,meteohub,2013-08-10 12:54:00,
2013-08-10 08:59:00,83.1,77.7,30.09,SE,134,0.0,5.0,84,0.00,,,0.00,72.0,meteohub,2013-08-10 12:59:00,
2013-08-10 09:04:00,83.3,77.9,30.09,SE,134,0.0,3.0,84,0.00,,,0.00,146.0,meteohub,2013-08-10 13:04:00,
2013-08-10 09:09:00,83.5,78.1,30.09,SE,134,0.0,3.0,84,0.00,,,0.00,462.0,meteohub,2013-08-10 13:09:00,
2013-08-10 09:14:00,83.8,77.7,30.09,SE,134,0.0,2.0,82,0.00,,,0.00,480.0,meteohub,2013-08-10 13:14:00,
2013-08-10 09:19:00,84.4,78.6,30.09,SE,136,1.0,1.0,83,0.00,,,0.00,485.0,meteohub,2013-08-10 13:19:00,
2013-08-10 09:24:00,84.9,78.1,30.09,SE,145,0.0,1.0,80,0.00,,,0.00,494.0,meteohub,2013-08-10 13:24:00,
2013-08-10 09:29:00,85.1,77.9,30.09,ESE,113,0.0,2.0,79,0.00,,,0.00,503.0,meteohub,2013-08-10 13:29:00,
2013-08-10 09:34:00,85.3,77.7,30.09,South,175,3.0,3.0,78,0.00,,,0.00,533.0,meteohub,2013-08-10 13:34:00,
2013-08-10 09:39:00,85.6,77.9,30.09,ESE,109,1.0,2.0,78,0.00,,,0.00,534.0,meteohub,2013-08-10 13:39:00,
2013-08-10 09:44:00,86.4,77.9,30.09,SE,142,0.0,4.0,76,0.00,,,0.00,552.0,meteohub,2013-08-10 13:44:00,
2013-08-10 09:49:00,86.5,77.7,30.09,SSE,148,0.0,4.0,75,0.00,,,0.00,575.0,meteohub,2013-08-10 13:49:00,
2013-08-10 09:54:00,86.5,77.7,30.09,SSE,155,0.0,2.0,75,0.00,,,0.00,594.0,meteohub,2013-08-10 13:54:00,
2013-08-10 09:59:00,86.7,78.3,30.09,SSE,155,0.0,2.0,76,0.00,,,0.00,601.0,meteohub,2013-08-10 13:59:00,
2013-08-10 10:04:00,86.9,77.5,30.09,SSE,155,0.0,2.0,74,0.00,,,0.00,628.0,meteohub,2013-08-10 14:04:00,
2013-08-10 10:09:00,86.7,76.6,30.09,ESE,109,0.0,1.0,72,0.00,,,0.00,645.0,meteohub,2013-08-10 14:09:00,
2013-08-10 10:15:00,87.1,77.0,30.10,SW,223,0.0,4.0,72,0.00,,,0.00,649.0,meteohub,2013-08-10 14:15:00,
2013-08-10 10:20:00,87.1,76.1,30.10,SW,233,0.0,5.0,70,0.00,,,0.00,654.0,meteohub,2013-08-10 14:20:00,
2013-08-10 10:25:00,87.1,76.5,30.10,West,264,0.0,5.0,71,0.00,,,0.00,682.0,meteohub,2013-08-10 14:25:00,
2013-08-10 10:30:00,87.1,75.7,30.10,SSE,165,0.0,5.0,69,0.00,,,0.00,693.0,meteohub,2013-08-10 14:30:00,
2013-08-10 10:35:00,87.4,76.5,30.10,East,88,2.0,4.0,70,0.00,,,0.00,717.0,meteohub,2013-08-10 14:35:00,
2013-08-10 10:40:00,87.6,75.4,30.10,SSE,155,0.0,4.0,67,0.00,,,0.00,728.0,meteohub,2013-08-10 14:40:00,
2013-08-10 10:45:00,87.8,75.9,30.10,ESE,103,0.0,8.0,68,0.00,,,0.00,737.0,meteohub,2013-08-10 14:45:00,
2013-08-10 10:50:00,88.0,76.1,30.10,SE,133,0.0,8.0,68,0.00,,,0.00,751.0,meteohub,2013-08-10 14:50:00,
2013-08-10 10:55:00,87.6,76.1,30.10,South,175,0.0,8.0,69,0.00,,,0.00,306.0,meteohub,2013-08-10 14:55:00,
2013-08-10 11:00:00,88.0,76.1,30.10,WNW,283,0.0,5.0,68,0.00,,,0.00,793.0,meteohub,2013-08-10 15:00:00,
2013-08-10 11:05:00,88.5,76.1,30.10,ENE,69,0.0,5.0,67,0.00,,,0.00,865.0,meteohub,2013-08-10 15:05:00,
2013-08-10 11:10:00,88.9,77.0,30.11,East,101,5.0,5.0,68,0.00,,,0.00,819.0,meteohub,2013-08-10 15:10:00,
2013-08-10 11:15:00,88.9,75.6,30.11,West,260,0.0,5.0,65,0.00,,,0.00,833.0,meteohub,2013-08-10 15:15:00,
2013-08-10 11:20:00,88.9,76.1,30.11,SW,228,0.0,5.0,66,0.00,,,0.00,844.0,meteohub,2013-08-10 15:20:00,
2013-08-10 11:25:00,89.2,75.4,30.11,SSE,163,0.0,5.0,64,0.00,,,0.00,863.0,meteohub,2013-08-10 15:25:00,
2013-08-10 11:30:00,89.2,75.0,30.11,South,181,4.0,4.0,63,0.00,,,0.00,935.0,meteohub,2013-08-10 15:30:00,
2013-08-10 11:31:00,89.2,75.0,30.11,South,182,0.0,3.0,63,0.00,,,0.00,935.0,meteohub,2013-08-10 15:31:00,
2013-08-10 11:36:00,88.5,75.2,30.11,South,180,4.0,5.0,65,0.00,,,0.00,911.0,meteohub,2013-08-10 15:36:00,
2013-08-10 11:41:00,88.2,75.4,30.11,SE,129,1.0,6.0,66,0.00,,,0.00,918.0,meteohub,2013-08-10 15:41:00,
2013-08-10 11:46:00,88.7,75.4,30.11,SE,140,0.0,6.0,65,0.00,,,0.00,933.0,meteohub,2013-08-10 15:46:00,
2013-08-10 11:51:00,88.5,74.3,30.11,South,187,0.0,6.0,63,0.00,,,0.00,171.0,meteohub,2013-08-10 15:51:00,
2013-08-10 11:56:00,88.9,75.2,30.11,South,186,0.0,4.0,64,0.00,,,0.00,942.0,meteohub,2013-08-10 15:56:00,
2013-08-10 12:01:00,89.2,75.4,30.11,ESE,123,1.0,4.0,64,0.00,,,0.00,972.0,meteohub,2013-08-10 16:01:00,
2013-08-10 12:06:00,89.2,75.4,30.11,SE,126,1.0,7.0,64,0.00,,,0.00,1056.0,meteohub,2013-08-10 16:06:00,
2013-08-10 12:11:00,89.2,76.8,30.11,SSE,167,0.0,8.0,67,0.00,,,0.00,1095.0,meteohub,2013-08-10 16:11:00,
2013-08-10 12:16:00,88.9,75.6,30.11,SE,140,0.0,8.0,65,0.00,,,0.00,253.0,meteohub,2013-08-10 16:16:00,
2013-08-10 12:21:00,88.7,76.8,30.11,SSE,163,0.0,8.0,68,0.00,,,0.00,1025.0,meteohub,2013-08-10 16:21:00,
2013-08-10 12:26:00,88.7,75.0,30.11,SSE,148,1.0,6.0,64,0.00,,,0.00,1023.0,meteohub,2013-08-10 16:26:00,
2013-08-10 12:31:00,89.1,74.8,30.11,SSW,200,1.0,6.0,63,0.00,,,0.00,904.0,meteohub,2013-08-10 16:31:00,
2013-08-10 12:36:00,89.2,75.9,30.11,West,264,0.0,8.0,65,0.00,,,0.00,258.0,meteohub,2013-08-10 16:36:00,
2013-08-10 12:41:00,89.2,76.8,30.10,SW,214,0.0,8.0,67,0.00,,,0.00,956.0,meteohub,2013-08-10 16:41:00,
2013-08-10 12:46:00,89.8,75.0,30.10,SSE,158,1.0,8.0,62,0.00,,,0.00,949.0,meteohub,2013-08-10 16:46:00,
2013-08-10 12:51:00,90.0,76.1,30.10,SW,224,0.0,6.0,64,0.00,,,0.00,983.0,meteohub,2013-08-10 16:51:00,
2013-08-10 12:56:00,90.1,75.9,30.11,SE,130,1.0,6.0,63,0.00,,,0.00,1004.0,meteohub,2013-08-10 16:56:00,
2013-08-10 13:01:00,90.1,75.9,30.10,South,178,0.0,6.0,63,0.00,,,0.00,977.0,meteohub,2013-08-10 17:01:00,
2013-08-10 13:06:00,90.1,75.9,30.10,SSE,158,7.0,8.0,63,0.00,,,0.00,995.0,meteohub,2013-08-10 17:06:00,
2013-08-10 13:11:00,90.1,76.3,30.10,SSE,160,0.0,8.0,64,0.00,,,0.00,972.0,meteohub,2013-08-10 17:11:00,
2013-08-10 13:16:00,90.7,75.9,30.10,SSE,161,1.0,8.0,62,0.00,,,0.00,997.0,meteohub,2013-08-10 17:16:00,
2013-08-10 13:21:00,90.7,74.8,30.10,South,187,0.0,7.0,60,0.00,,,0.00,972.0,meteohub,2013-08-10 17:21:00,
2013-08-10 13:26:00,90.3,75.0,30.10,ESE,108,0.0,6.0,61,0.00,,,0.00,995.0,meteohub,2013-08-10 17:26:00,
2013-08-10 13:31:00,90.0,75.7,30.10,South,170,0.0,6.0,63,0.00,,,0.00,156.0,meteohub,2013-08-10 17:31:00,
2013-08-10 13:36:00,89.8,76.5,30.09,ESE,109,0.0,6.0,65,0.00,,,0.00,1037.0,meteohub,2013-08-10 17:36:00,
2013-08-10 13:41:00,89.6,76.3,30.09,SSE,158,3.0,6.0,65,0.00,,,0.00,258.0,meteohub,2013-08-10 17:41:00,
2013-08-10 13:46:00,89.4,77.0,30.09,ESE,103,1.0,5.0,67,0.00,,,0.00,1027.0,meteohub,2013-08-10 17:46:00,
2013-08-10 13:51:00,90.0,76.1,30.09,SSE,167,2.0,5.0,64,0.00,,,0.00,1062.0,meteohub,2013-08-10 17:51:00,
2013-08-10 13:57:00,90.5,77.5,30.09,SSE,167,0.0,5.0,66,0.00,,,0.00,1009.0,meteohub,2013-08-10 17:57:00,
2013-08-10 14:02:00,90.1,76.3,30.09,East,84,0.0,7.0,64,0.00,,,0.00,178.0,meteohub,2013-08-10 18:02:00,
2013-08-10 14:07:00,90.0,77.0,30.09,East,86,0.0,7.0,66,0.00,,,0.00,241.0,meteohub,2013-08-10 18:07:00,
2013-08-10 14:12:00,89.6,76.6,30.09,WSW,244,1.0,7.0,66,0.00,,,0.00,1072.0,meteohub,2013-08-10 18:12:00,
2013-08-10 14:17:00,89.2,75.4,30.09,South,169,1.0,7.0,64,0.00,,,0.00,202.0,meteohub,2013-08-10 18:17:00,
2013-08-10 14:22:00,89.1,75.7,30.09,East,90,0.0,7.0,65,0.00,,,0.00,1065.0,meteohub,2013-08-10 18:22:00,
2013-08-10 14:27:00,89.4,75.2,30.09,East,92,3.0,7.0,63,0.00,,,0.00,967.0,meteohub,2013-08-10 18:27:00,
2013-08-10 14:32:00,90.0,77.5,30.08,ESE,118,4.0,12.0,67,0.00,,,0.00,932.0,meteohub,2013-08-10 18:32:00,
2013-08-10 14:37:00,90.1,75.9,30.08,SE,129,0.0,12.0,63,0.00,,,0.00,921.0,meteohub,2013-08-10 18:37:00,
2013-08-10 14:42:00,90.3,76.5,30.08,ENE,63,2.0,9.0,64,0.00,,,0.00,916.0,meteohub,2013-08-10 18:42:00,
2013-08-10 14:47:00,90.1,75.4,30.08,ESE,113,1.0,9.0,62,0.00,,,0.00,902.0,meteohub,2013-08-10 18:47:00,
2013-08-10 14:52:00,90.1,74.8,30.08,SE,142,1.0,9.0,61,0.00,,,0.00,898.0,meteohub,2013-08-10 18:52:00,
2013-08-10 14:57:00,90.0,75.7,30.08,South,178,0.0,9.0,63,0.00,,,0.00,893.0,meteohub,2013-08-10 18:57:00,
2013-08-10 15:02:00,90.0,75.7,30.08,ESE,123,2.0,9.0,63,0.00,,,0.00,884.0,meteohub,2013-08-10 19:02:00,
2013-08-10 15:07:00,90.1,75.9,30.07,SE,144,3.0,8.0,63,0.00,,,0.00,874.0,meteohub,2013-08-10 19:07:00,
2013-08-10 15:12:00,90.0,75.2,30.07,ESE,106,1.0,7.0,62,0.00,,,0.00,863.0,meteohub,2013-08-10 19:12:00,
2013-08-10 15:17:00,90.0,74.7,30.07,South,177,1.0,8.0,61,0.00,,,0.00,856.0,meteohub,2013-08-10 19:17:00,
2013-08-10 15:22:00,90.1,74.3,30.07,SE,128,1.0,8.0,60,0.00,,,0.00,846.0,meteohub,2013-08-10 19:22:00,
2013-08-10 15:27:00,90.1,74.3,30.06,SW,229,0.0,8.0,60,0.00,,,0.00,837.0,meteohub,2013-08-10 19:27:00,
2013-08-10 15:32:00,90.1,74.8,30.06,SE,144,1.0,8.0,61,0.00,,,0.00,828.0,meteohub,2013-08-10 19:32:00,
2013-08-10 15:37:00,90.1,74.3,30.06,SSW,199,1.0,8.0,60,0.00,,,0.00,816.0,meteohub,2013-08-10 19:37:00,
2013-08-10 15:42:00,90.3,75.6,30.06,South,186,2.0,8.0,62,0.00,,,0.00,807.0,meteohub,2013-08-10 19:42:00,
2013-08-10 15:47:00,90.5,75.2,30.06,SSE,165,0.0,6.0,61,0.00,,,0.00,795.0,meteohub,2013-08-10 19:47:00,
2013-08-10 15:52:00,90.9,75.6,30.06,SE,132,4.0,6.0,61,0.00,,,0.00,780.0,meteohub,2013-08-10 19:52:00,
2013-08-10 15:57:00,90.5,74.7,30.06,SSE,162,1.0,5.0,60,0.00,,,0.00,772.0,meteohub,2013-08-10 19:57:00,
2013-08-10 16:02:00,90.3,75.9,30.06,SE,144,1.0,5.0,63,0.00,,,0.00,754.0,meteohub,2013-08-10 20:02:00,
2013-08-10 16:07:00,90.5,75.7,30.05,SSE,150,0.0,7.0,62,0.00,,,0.00,747.0,meteohub,2013-08-10 20:07:00,
2013-08-10 16:12:00,90.1,75.4,30.05,SE,136,2.0,7.0,62,0.00,,,0.00,737.0,meteohub,2013-08-10 20:12:00,
2013-08-10 16:17:00,89.8,75.9,30.05,SE,128,2.0,7.0,64,0.00,,,0.00,721.0,meteohub,2013-08-10 20:17:00,
2013-08-10 16:22:00,89.4,76.1,30.05,SSE,160,2.0,9.0,65,0.00,,,0.00,705.0,meteohub,2013-08-10 20:22:00,
2013-08-10 16:27:00,89.4,76.6,30.05,SW,232,0.0,9.0,66,0.00,,,0.00,689.0,meteohub,2013-08-10 20:27:00,
2013-08-10 16:32:00,89.6,76.6,30.05,SSE,161,0.0,7.0,66,0.00,,,0.00,675.0,meteohub,2013-08-10 20:32:00,
2013-08-10 16:37:00,89.6,77.2,30.05,SSE,148,0.0,7.0,67,0.00,,,0.00,664.0,meteohub,2013-08-10 20:37:00,
2013-08-10 16:42:00,89.4,77.0,30.05,South,173,0.0,7.0,67,0.00,,,0.00,649.0,meteohub,2013-08-10 20:42:00,
2013-08-10 16:47:00,89.4,77.0,30.05,South,186,1.0,7.0,67,0.00,,,0.00,635.0,meteohub,2013-08-10 20:47:00,
2013-08-10 16:52:00,89.2,76.5,30.05,South,176,5.0,7.0,66,0.00,,,0.00,617.0,meteohub,2013-08-10 20:52:00,
2013-08-10 16:57:00,89.2,77.4,30.05,ESE,117,0.0,7.0,68,0.00,,,0.00,599.0,meteohub,2013-08-10 20:57:00,
2013-08-10 17:02:00,89.4,77.0,30.05,SSE,156,2.0,7.0,67,0.00,,,0.00,584.0,meteohub,2013-08-10 21:02:00,
2013-08-10 17:07:00,89.2,76.8,30.05,ESE,103,4.0,7.0,67,0.00,,,0.00,563.0,meteohub,2013-08-10 21:07:00,
2013-08-10 17:12:00,88.9,77.0,30.05,ESE,109,2.0,7.0,68,0.00,,,0.00,269.0,meteohub,2013-08-10 21:12:00,
2013-08-10 17:17:00,88.7,76.8,30.05,SE,146,0.0,7.0,68,0.00,,,0.00,56.0,meteohub,2013-08-10 21:17:00,
2013-08-10 17:22:00,88.5,77.0,30.05,SSE,159,0.0,9.0,69,0.00,,,0.00,51.0,meteohub,2013-08-10 21:22:00,
2013-08-10 17:27:00,88.5,77.5,30.05,East,84,2.0,9.0,70,0.00,,,0.00,54.0,meteohub,2013-08-10 21:27:00,
2013-08-10 17:32:00,88.3,77.4,30.05,SE,131,4.0,9.0,70,0.00,,,0.00,46.0,meteohub,2013-08-10 21:32:00,
2013-08-10 17:37:00,88.0,77.0,30.05,ESE,122,1.0,8.0,70,0.00,,,0.00,65.0,meteohub,2013-08-10 21:37:00,
2013-08-10 17:42:00,87.8,77.7,30.05,SE,135,0.0,8.0,72,0.00,,,0.00,105.0,meteohub,2013-08-10 21:42:00,
2013-08-10 17:47:00,87.8,77.2,30.04,East,81,0.0,8.0,71,0.00,,,0.00,114.0,meteohub,2013-08-10 21:47:00,
2013-08-10 17:52:00,87.6,77.0,30.04,SSW,213,1.0,9.0,71,0.00,,,0.00,40.0,meteohub,2013-08-10 21:52:00,
2013-08-10 17:57:00,87.4,77.4,30.04,SE,128,0.0,9.0,72,0.00,,,0.00,40.0,meteohub,2013-08-10 21:57:00,
2013-08-10 18:02:00,87.3,77.2,30.04,SE,130,5.0,8.0,72,0.00,,,0.00,47.0,meteohub,2013-08-10 22:02:00,
2013-08-10 18:07:00,87.3,77.5,30.04,ESE,117,0.0,7.0,73,0.00,,,0.00,142.0,meteohub,2013-08-10 22:07:00,
2013-08-10 18:12:00,86.9,77.2,30.04,SE,132,0.0,9.0,73,0.00,,,0.00,42.0,meteohub,2013-08-10 22:12:00,
2013-08-10 18:17:00,86.5,77.7,30.04,SW,229,0.0,10.0,75,0.00,,,0.00,116.0,meteohub,2013-08-10 22:17:00,
2013-08-10 18:22:00,86.5,77.7,30.04,SE,138,1.0,10.0,75,0.00,,,0.00,90.0,meteohub,2013-08-10 22:22:00,
2013-08-10 18:27:00,86.5,78.1,30.04,SSE,155,2.0,10.0,76,0.00,,,0.00,62.0,meteohub,2013-08-10 22:27:00,
2013-08-10 18:32:00,86.4,77.9,30.04,South,169,3.0,10.0,76,0.00,,,0.00,62.0,meteohub,2013-08-10 22:32:00,
2013-08-10 18:37:00,86.2,78.1,30.03,SE,142,0.0,10.0,77,0.00,,,0.00,62.0,meteohub,2013-08-10 22:37:00,
2013-08-10 18:42:00,86.2,77.7,30.03,SE,126,0.0,10.0,76,0.00,,,0.00,32.0,meteohub,2013-08-10 22:42:00,
2013-08-10 18:47:00,86.0,77.5,30.03,East,90,1.0,7.0,76,0.00,,,0.00,32.0,meteohub,2013-08-10 22:47:00,
2013-08-10 18:52:00,85.6,77.2,30.04,ESE,123,2.0,8.0,76,0.00,,,0.00,30.0,meteohub,2013-08-10 22:52:00,
2013-08-10 18:57:00,85.6,77.2,30.04,SSE,166,3.0,8.0,76,0.00,,,0.00,30.0,meteohub,2013-08-10 22:57:00,
2013-08-10 19:02:00,85.5,77.0,30.04,SE,139,3.0,8.0,76,0.00,,,0.00,28.0,meteohub,2013-08-10 23:02:00,
2013-08-10 19:07:00,85.5,77.4,30.04,ESE,113,0.0,10.0,77,0.00,,,0.00,28.0,meteohub,2013-08-10 23:07:00,
2013-08-10 19:12:00,85.3,77.2,30.04,ESE,115,0.0,10.0,77,0.00,,,0.00,26.0,meteohub,2013-08-10 23:12:00,
2013-08-10 19:17:00,85.3,77.7,30.05,SSE,161,0.0,10.0,78,0.00,,,0.00,26.0,meteohub,2013-08-10 23:17:00,
2013-08-10 19:22:00,85.1,77.5,30.05,SSE,150,2.0,5.0,78,0.00,,,0.00,25.0,meteohub,2013-08-10 23:22:00,
2013-08-10 19:27:00,84.9,77.4,30.05,SSE,168,0.0,4.0,78,0.00,,,0.00,23.0,meteohub,2013-08-10 23:27:00,
2013-08-10 19:32:00,84.7,77.5,30.05,East,90,1.0,5.0,79,0.00,,,0.00,21.0,meteohub,2013-08-10 23:32:00,
2013-08-10 19:37:00,84.6,77.7,30.05,South,180,1.0,8.0,80,0.00,,,0.00,19.0,meteohub,2013-08-10 23:37:00,
2013-08-10 19:42:00,84.4,77.5,30.05,SE,144,0.0,8.0,80,0.00,,,0.00,19.0,meteohub,2013-08-10 23:42:00,
2013-08-10 19:47:00,84.2,77.7,30.06,ESE,102,0.0,8.0,81,0.00,,,0.00,16.0,meteohub,2013-08-10 23:47:00,
2013-08-10 19:52:00,84.0,77.5,30.05,East,96,1.0,7.0,81,0.00,,,0.00,14.0,meteohub,2013-08-10 23:52:00,
2013-08-10 19:57:00,83.8,77.7,30.06,SE,127,2.0,5.0,82,0.00,,,0.00,11.0,meteohub,2013-08-10 23:57:00,
2013-08-10 20:02:00,83.7,77.5,30.06,SSE,167,3.0,5.0,82,0.00,,,0.00,9.0,meteohub,2013-08-11 00:02:00,
2013-08-10 20:07:00,83.7,77.9,30.06,SE,134,0.0,6.0,83,0.00,,,0.00,5.0,meteohub,2013-08-11 00:07:00,
2013-08-10 20:12:00,83.5,77.7,30.06,East,101,0.0,7.0,83,0.00,,,0.00,0.0,meteohub,2013-08-11 00:12:00,
2013-08-10 20:17:00,83.3,77.9,30.06,SE,124,0.0,7.0,84,0.00,,,0.00,0.0,meteohub,2013-08-11 00:17:00,
2013-08-10 20:22:00,83.1,77.7,30.06,SE,124,0.0,7.0,84,0.00,,,0.00,0.0,meteohub,2013-08-11 00:22:00,
2013-08-10 20:27:00,82.9,77.5,30.06,ESE,123,0.0,5.0,84,0.00,,,0.00,0.0,meteohub,2013-08-11 00:27:00,
2013-08-10 20:32:00,82.8,77.7,30.06,SE,124,0.0,1.0,85,0.00,,,0.00,0.0,meteohub,2013-08-11 00:32:00,
2013-08-10 20:37:00,82.6,77.5,30.06,ESE,111,0.0,1.0,85,0.00,,,0.00,0.0,meteohub,2013-08-11 00:37:00,
2013-08-10 20:42:00,82.4,77.4,30.06,SE,124,1.0,3.0,85,0.00,,,0.00,0.0,meteohub,2013-08-11 00:42:00,
2013-08-10 20:47:00,82.2,77.2,30.06,SE,124,0.0,3.0,85,0.00,,,0.00,0.0,meteohub,2013-08-11 00:47:00,
2013-08-10 20:52:00,82.2,77.2,30.06,SE,124,0.0,3.0,85,0.00,,,0.00,0.0,meteohub,2013-08-11 00:52:00,
2013-08-10 20:57:00,82.0,77.0,30.06,SE,124,0.0,3.0,85,0.00,,,0.00,0.0,meteohub,2013-08-11 00:57:00,
2013-08-10 21:02:00,82.0,77.4,30.06,SE,124,0.0,2.0,86,0.00,,,0.00,0.0,meteohub,2013-08-11 01:02:00,
2013-08-10 21:07:00,81.9,77.2,30.07,SE,124,0.0,2.0,86,0.00,,,0.00,0.0,meteohub,2013-08-11 01:07:00,
2013-08-10 21:12:00,81.9,77.2,30.07,SE,130,0.0,2.0,86,0.00,,,0.00,0.0,meteohub,2013-08-11 01:12:00,
2013-08-10 21:17:00,81.9,77.2,30.07,SSE,153,0.0,1.0,86,0.00,,,0.00,0.0,meteohub,2013-08-11 01:17:00,
2013-08-10 21:22:00,81.9,77.2,30.07,SSE,153,0.0,1.0,86,0.00,,,0.00,0.0,meteohub,2013-08-11 01:22:00,
2013-08-10 21:27:00,81.7,77.0,30.07,SSE,153,0.0,1.0,86,0.00,,,0.00,0.0,meteohub,2013-08-11 01:27:00,
2013-08-10 21:32:00,81.7,77.4,30.08,East,85,0.0,1.0,87,0.00,,,0.00,0.0,meteohub,2013-08-11 01:32:00,
2013-08-10 21:37:00,81.3,77.0,30.08,East,85,0.0,1.0,87,0.00,,,0.00,0.0,meteohub,2013-08-11 01:37:00,
2013-08-10 21:42:00,81.3,77.0,30.08,SE,138,0.0,1.0,87,0.00,,,0.00,0.0,meteohub,2013-08-11 01:42:00,
2013-08-10 21:47:00,81.1,76.8,30.08,SE,140,0.0,3.0,87,0.00,,,0.00,0.0,meteohub,2013-08-11 01:47:00,
2013-08-10 21:52:00,81.1,77.2,30.09,SE,138,0.0,3.0,88,0.00,,,0.00,0.0,meteohub,2013-08-11 01:52:00,
2013-08-10 21:57:00,81.1,77.2,30.09,SE,139,0.0,3.0,88,0.00,,,0.00,0.0,meteohub,2013-08-11 01:57:00,
2013-08-10 22:02:00,81.0,77.0,30.09,SE,140,0.0,0.0,88,0.00,,,0.00,0.0,meteohub,2013-08-11 02:02:00,
2013-08-10 22:07:00,81.0,77.4,30.09,SE,136,0.0,1.0,89,0.00,,,0.00,0.0,meteohub,2013-08-11 02:07:00,
2013-08-10 22:12:00,81.0,77.4,30.09,SE,136,0.0,2.0,89,0.00,,,0.00,0.0,meteohub,2013-08-11 02:12:00,
2013-08-10 22:17:00,81.0,77.4,30.09,SE,137,0.0,2.0,89,0.00,,,0.00,0.0,meteohub,2013-08-11 02:17:00,
2013-08-10 22:22:00,81.1,77.5,30.09,SE,137,0.0,2.0,89,0.00,,,0.00,0.0,meteohub,2013-08-11 02:22:00,
2013-08-10 22:27:00,81.0,77.4,30.09,SE,137,0.0,1.0,89,0.00,,,0.00,0.0,meteohub,2013-08-11 02:27:00,
2013-08-10 22:32:00,81.0,77.4,30.09,SE,137,0.0,1.0,89,0.00,,,0.00,0.0,meteohub,2013-08-11 02:32:00,
2013-08-10 22:37:00,81.0,77.4,30.09,SE,137,0.0,0.0,89,0.00,,,0.00,0.0,meteohub,2013-08-11 02:37:00,
2013-08-10 22:42:00,81.0,77.4,30.09,SE,137,0.0,1.0,89,0.00,,,0.00,0.0,meteohub,2013-08-11 02:42:00,
2013-08-10 22:47:00,81.0,77.7,30.09,SE,137,0.0,1.0,90,0.00,,,0.00,0.0,meteohub,2013-08-11 02:47:00,
2013-08-10 22:53:00,81.0,77.7,30.09,SE,137,0.0,1.0,90,0.00,,,0.00,0.0,meteohub,2013-08-11 02:53:00,
2013-08-10 22:58:00,81.0,77.7,30.09,SE,140,0.0,1.0,90,0.00,,,0.00,0.0,meteohub,2013-08-11 02:58:00,
2013-08-10 23:03:00,81.0,77.7,30.09,SW,217,0.0,1.0,90,0.00,,,0.00,0.0,meteohub,2013-08-11 03:03:00,
2013-08-10 23:08:00,81.0,77.7,30.09,SSW,213,0.0,3.0,90,0.00,,,0.00,0.0,meteohub,2013-08-11 03:08:00,
2013-08-10 23:14:00,81.0,77.7,30.09,SSE,153,0.0,3.0,90,0.00,,,0.00,0.0,meteohub,2013-08-11 03:14:00,
2013-08-10 23:19:00,81.0,77.7,30.09,SSE,153,0.0,3.0,90,0.00,,,0.00,0.0,meteohub,2013-08-11 03:19:00,
2013-08-10 23:24:00,81.0,77.7,30.09,ESE,103,0.0,1.0,90,0.00,,,0.00,0.0,meteohub,2013-08-11 03:24:00,
2013-08-10 23:29:00,80.8,77.5,30.09,ESE,103,0.0,2.0,90,0.00,,,0.00,0.0,meteohub,2013-08-11 03:29:00,
2013-08-10 23:34:00,80.8,77.5,30.09,South,172,0.0,2.0,90,0.00,,,0.00,0.0,meteohub,2013-08-11 03:34:00,
2013-08-10 23:39:00,81.0,77.7,30.09,SSE,150,0.0,2.0,90,0.00,,,0.00,0.0,meteohub,2013-08-11 03:39:00,
2013-08-10 23:44:00,81.0,77.7,30.09,SSE,156,0.0,2.0,90,0.00,,,0.00,0.0,meteohub,2013-08-11 03:44:00,
2013-08-10 23:49:00,81.0,77.7,30.09,SSE,156,0.0,2.0,90,0.00,,,0.00,0.0,meteohub,2013-08-11 03:49:00,
2013-08-10 23:54:00,81.0,77.7,30.09,SSE,159,0.0,2.0,90,0.00,,,0.00,0.0,meteohub,2013-08-11 03:54:00,
2013-08-10 23:59:00,81.0,77.7,30.09,SSE,164,0.0,2.0,90,0.00,,,0.00,0.0,meteohub,2013-08-11 03:59:00,